TimeAKDT,TemperatureF,Dew PointF,Humidity,Sea Level PressureIn,VisibilityMPH,Wind Direction,Wind SpeedMPH,Gust SpeedMPH,PrecipitationIn,Events,Conditions,WindDirDegrees,DateUTC
12:16 AM,50.0,50.0,100,30.11,10.0,Calm,Calm,-,N/A,,Overcast,0,2012-10-09 08:16:00
12:36 AM,50.0,50.0,100,30.11,10.0,Calm,Calm,-,N/A,,Overcast,0,2012-10-09 08:36:00
12:56 AM,50.0,50.0,100,30.11,10.0,Calm,Calm,-,N/A,,Overcast,0,2012-10-09 08:56:00
1:16 AM,50.0,48.2,94,30.11,10.0,Calm,Calm,-,N/A,,Overcast,0,2012-10-09 09:16:00
1:36 AM,48.2,48.2,100,30.10,9.0,Calm,Calm,-,N/A,,Overcast,0,2012-10-09 09:36:00
1:56 AM,48.2,48.2,100,30.10,8.0,Calm,Calm,-,N/A,,Overcast,0,2012-10-09 09:56:00
2:16 AM,50.0,48.2,94,30.11,10.0,Calm,Calm,-,N/A,,Overcast,0,2012-10-09 10:16:00
2:36 AM,48.2,48.2,100,30.10,10.0,SE,3.5,-,N/A,,Overcast,130,2012-10-09 10:36:00
2:56 AM,48.2,46.4,93,30.10,10.0,Calm,Calm,-,N/A,,Overcast,0,2012-10-09 10:56:00
3:16 AM,48.2,48.2,100,30.11,10.0,ESE,5.8,-,N/A,,Overcast,110,2012-10-09 11:16:00
3:36 AM,48.2,48.2,100,30.10,10.0,East,3.5,-,N/A,,Overcast,90,2012-10-09 11:36:00
3:56 AM,48.2,48.2,100,30.10,10.0,Calm,Calm,-,N/A,,Overcast,0,2012-10-09 11:56:00
4:16 AM,48.2,48.2,100,30.09,10.0,Calm,Calm,-,N/A,,Overcast,0,2012-10-09 12:16:00
4:36 AM,48.2,48.2,100,30.08,10.0,Calm,Calm,-,N/A,,Overcast,0,2012-10-09 12:36:00
4:56 AM,48.2,48.2,100,30.08,8.0,ENE,4.6,-,N/A,,Overcast,60,2012-10-09 12:56:00
5:16 AM,48.2,48.2,100,30.07,10.0,ENE,4.6,-,N/A,,Overcast,70,2012-10-09 13:16:00
5:36 AM,48.2,46.4,93,30.07,10.0,ENE,3.5,-,N/A,,Overcast,70,2012-10-09 13:36:00
5:56 AM,48.2,46.4,93,30.06,10.0,ENE,6.9,-,N/A,,Overcast,70,2012-10-09 13:56:00
6:16 AM,48.2,46.4,93,30.05,10.0,NE,6.9,-,N/A,,Overcast,40,2012-10-09 14:16:00
6:36 AM,48.2,46.4,93,30.05,10.0,ENE,6.9,-,N/A,,Overcast,60,2012-10-09 14:36:00
6:56 AM,48.2,46.4,93,30.05,10.0,ENE,4.6,-,N/A,,Overcast,70,2012-10-09 14:56:00
7:16 AM,48.2,46.4,93,30.05,10.0,NE,5.8,-,N/A,,Overcast,50,2012-10-09 15:16:00
7:36 AM,48.2,46.4,93,30.04,10.0,ENE,10.4,16.1,N/A,,Overcast,60,2012-10-09 15:36:00
7:56 AM,46.4,46.4,100,30.04,10.0,NE,11.5,20.7,N/A,,Overcast,40,2012-10-09 15:56:00
8:16 AM,46.4,44.6,93,30.04,10.0,ENE,9.2,-,N/A,,Overcast,60,2012-10-09 16:16:00
8:36 AM,46.4,44.6,93,30.04,10.0,ENE,8.1,18.4,N/A,,Overcast,60,2012-10-09 16:36:00
8:56 AM,46.4,44.6,93,30.04,10.0,NE,11.5,18.4,N/A,,Overcast,50,2012-10-09 16:56:00
9:16 AM,46.4,44.6,93,30.05,10.0,NE,11.5,20.7,N/A,,Overcast,40,2012-10-09 17:16:00
9:36 AM,46.4,46.4,100,30.04,10.0,NNE,9.2,-,N/A,,Overcast,30,2012-10-09 17:36:00
9:56 AM,46.4,46.4,100,30.04,10.0,NNE,11.5,20.7,N/A,,Mostly Cloudy,30,2012-10-09 17:56:00
10:16 AM,46.4,46.4,100,30.03,10.0,NE,15.0,19.6,N/A,,Mostly Cloudy,40,2012-10-09 18:16:00
10:36 AM,46.4,46.4,100,30.03,10.0,NE,11.5,19.6,N/A,,Mostly Cloudy,40,2012-10-09 18:36:00
10:56 AM,48.2,46.4,93,30.03,10.0,North,6.9,-,N/A,,Mostly Cloudy,360,2012-10-09 18:56:00
11:16 AM,48.2,46.4,93,30.03,10.0,Calm,Calm,-,N/A,,Mostly Cloudy,0,2012-10-09 19:16:00
11:36 AM,48.2,46.4,93,30.03,10.0,North,5.8,-,N/A,,Mostly Cloudy,10,2012-10-09 19:36:00
11:56 AM,48.2,46.4,93,30.03,10.0,Calm,Calm,-,N/A,,Mostly Cloudy,0,2012-10-09 19:56:00
12:16 PM,48.2,46.4,93,30.02,10.0,NE,4.6,-,N/A,,Mostly Cloudy,40,2012-10-09 20:16:00
12:36 PM,48.2,46.4,93,30.01,10.0,NE,10.4,-,N/A,,Mostly Cloudy,50,2012-10-09 20:36:00
12:56 PM,48.2,46.4,93,30.01,10.0,Calm,Calm,-,N/A,,Mostly Cloudy,0,2012-10-09 20:56:00
1:16 PM,50.0,46.4,87,30.00,10.0,SE,6.9,-,N/A,,Mostly Cloudy,140,2012-10-09 21:16:00
1:36 PM,50.0,46.4,87,29.99,10.0,South,4.6,-,N/A,,Mostly Cloudy,170,2012-10-09 21:36:00
1:56 PM,50.0,46.4,87,29.97,10.0,NE,15.0,23.0,N/A,,Mostly Cloudy,40,2012-10-09 21:56:00
2:16 PM,50.0,46.4,87,29.97,10.0,NNE,13.8,23.0,N/A,,Mostly Cloudy,30,2012-10-09 22:16:00
2:36 PM,50.0,46.4,87,29.98,10.0,ENE,10.4,17.3,N/A,,Mostly Cloudy,60,2012-10-09 22:36:00
2:56 PM,50.0,46.4,87,29.97,10.0,NE,10.4,20.7,N/A,,Mostly Cloudy,40,2012-10-09 22:56:00
3:16 PM,50.0,46.4,87,29.95,10.0,NE,13.8,19.6,N/A,,Mostly Cloudy,40,2012-10-09 23:16:00
3:36 PM,50.0,48.2,94,29.94,10.0,NE,10.4,17.3,N/A,,Mostly Cloudy,40,2012-10-09 23:36:00
3:56 PM,50.0,46.4,87,29.95,10.0,NNE,8.1,-,N/A,,Mostly Cloudy,30,2012-10-09 23:56:00
4:16 PM,48.2,46.4,93,29.93,10.0,NNE,4.6,-,N/A,,Mostly Cloudy,30,2012-10-10 00:16:00
4:36 PM,48.2,46.4,93,29.93,10.0,NE,6.9,-,N/A,,Mostly Cloudy,40,2012-10-10 00:36:00
4:56 PM,48.2,46.4,93,29.92,10.0,NW,4.6,-,N/A,,Mostly Cloudy,320,2012-10-10 00:56:00
5:16 PM,48.2,46.4,93,29.92,10.0,NE,5.8,-,N/A,,Mostly Cloudy,50,2012-10-10 01:16:00
5:36 PM,48.2,46.4,93,29.91,9.0,NNE,9.2,-,N/A,,Mostly Cloudy,20,2012-10-10 01:36:00
5:56 PM,48.2,46.4,93,29.92,10.0,ENE,4.6,-,N/A,,Mostly Cloudy,60,2012-10-10 01:56:00
6:16 PM,48.2,46.4,93,29.91,10.0,NNE,4.6,-,N/A,,Mostly Cloudy,20,2012-10-10 02:16:00
6:36 PM,48.2,46.4,93,29.91,10.0,NNE,3.5,-,N/A,,Mostly Cloudy,30,2012-10-10 02:36:00
6:56 PM,48.2,46.4,93,29.91,10.0,ENE,6.9,-,N/A,,Mostly Cloudy,60,2012-10-10 02:56:00
7:16 PM,48.2,46.4,93,29.91,8.0,SSE,3.5,-,N/A,,Mostly Cloudy,150,2012-10-10 03:16:00
7:36 PM,48.2,46.4,93,29.92,6.0,ENE,4.6,-,N/A,,Mostly Cloudy,60,2012-10-10 03:36:00
7:56 PM,48.2,46.4,93,29.90,3.0,East,9.2,-,N/A,,Mostly Cloudy,80,2012-10-10 03:56:00
8:16 PM,48.2,46.4,93,29.89,4.0,East,10.4,20.7,N/A,,Overcast,80,2012-10-10 04:16:00
8:36 PM,48.2,46.4,93,29.90,6.0,NE,6.9,-,N/A,,Overcast,40,2012-10-10 04:36:00
8:56 PM,48.2,48.2,100,29.89,10.0,NE,11.5,17.3,N/A,,Overcast,50,2012-10-10 04:56:00
9:16 PM,48.2,48.2,100,29.90,10.0,Calm,Calm,-,N/A,,Overcast,0,2012-10-10 05:16:00
9:36 PM,48.2,48.2,100,29.89,10.0,East,3.5,-,N/A,,Overcast,80,2012-10-10 05:36:00
9:56 PM,48.2,48.2,100,29.89,10.0,ENE,6.9,-,N/A,,Overcast,70,2012-10-10 05:56:00
10:16 PM,48.2,48.2,100,29.88,7.0,NE,12.7,18.4,N/A,,Overcast,40,2012-10-10 06:16:00
10:36 PM,48.2,48.2,100,29.88,8.0,NE,10.4,18.4,N/A,,Overcast,40,2012-10-10 06:36:00
10:56 PM,48.2,48.2,100,29.88,8.0,NE,9.2,-,N/A,,Overcast,40,2012-10-10 06:56:00
11:16 PM,48.2,48.2,100,29.89,5.0,NE,9.2,-,N/A,,Overcast,50,2012-10-10 07:16:00
11:36 PM,48.2,48.2,100,29.88,5.0,NE,9.2,-,N/A,,Overcast,50,2012-10-10 07:36:00
11:56 PM,48.2,48.2,100,29.86,10.0,NE,16.1,23.0,N/A,,Overcast,40,2012-10-10 07:56:00